This is the latest recevied weather packets stored in our database for station/object N5DGC. If no packets are shown the sender has not sent any weather packets the latest 10 day(s).
| Time | Temp. | Humidity | Pressure | Rain* | Wind** | Luminosity | Snow |
|---|---|---|---|---|---|---|---|
| 1777935326 | 23.89° C | 13% | 1229.3 hPa | 0 mm | - | 126 W/m² | - |
| 1777935023 | 23.89° C | 13% | 1229.2 hPa | 0 mm | - | 143 W/m² | - |
| 1777934719 | 23.89° C | 13% | 1229.3 hPa | 0 mm | - | 166 W/m² | - |
| 1777934417 | 23.89° C | 13% | 1229.4 hPa | 0 mm | - | 191 W/m² | - |
| 1777934113 | 24.44° C | 13% | 1229.3 hPa | 0 mm | - | 200 W/m² | - |
| 1777933809 | 24.44° C | 13% | 1229.3 hPa | 0 mm | - | 208 W/m² | - |
| 1777933506 | 24.44° C | 13% | 1229.4 hPa | 0 mm | - | 227 W/m² | - |
| 1777933203 | 25° C | 13% | 1229.7 hPa | 0 mm | - | 268 W/m² | - |
| 1777932900 | 24.44° C | 13% | 1229.7 hPa | 0 mm | - | 252 W/m² | - |
| 1777932598 | 24.44° C | 13% | 1229.9 hPa | 0 mm | - | 268 W/m² | - |
| 1777932294 | 25° C | 13% | 1229.7 hPa | 0 mm | - | 263 W/m² | - |
| 1777931991 | 25° C | 12% | 1229.9 hPa | 0 mm | - | 256 W/m² | - |
| 1777931687 | 24.44° C | 12% | 1229.8 hPa | 0 mm | - | 262 W/m² | - |
| 1777931384 | 25° C | 12% | 1229.9 hPa | 0 mm | - | 264 W/m² | - |
| 1777931081 | 25° C | 13% | 1230.1 hPa | 0 mm | - | 249 W/m² | - |
| 1777930777 | 25° C | 13% | 1230.3 hPa | 0 mm | - | 271 W/m² | - |
| 1777930473 | 25.56° C | 12% | 1230.1 hPa | 0 mm | - | 297 W/m² | - |
| 1777930171 | 25.56° C | 12% | 1230 hPa | 0 mm | - | 325 W/m² | - |
| 1777929866 | 26.11° C | 12% | 1229.9 hPa | 0 mm | - | 424 W/m² | - |
| 1777929565 | 25.56° C | 13% | 1230.1 hPa | 0 mm | - | 412 W/m² | - |
| 1777929260 | 25.56° C | 13% | 1230.3 hPa | 0 mm | - | 473 W/m² | - |
| 1777928958 | 25.56° C | 13% | 1230.4 hPa | 0 mm | - | 454 W/m² | - |
| 1777928655 | 25.56° C | 12% | 1230.6 hPa | 0 mm | - | 367 W/m² | - |
| 1777928352 | 25.56° C | 12% | 1230.7 hPa | 0 mm | - | 514 W/m² | - |
| 1777928050 | 25.56° C | 13% | 1230.8 hPa | 0 mm | - | 468 W/m² | - |
* Rain latest hour (hover to see other rain measurements)
** Current wind speed in m/s (hover to see current wind gust speed)